Showing default

POEM, 52939

Orbit data source: Space-Track

POEM, 52939 is a payload satellite owned by ISRO (IN) in LEO that was launched on Thu, 30 Jun 2022 UTC via a PSLV launch vehicle from the Sirharikota (SRI). Payload-class satellites include a variety of spacecraft equipped with specific instruments for various scientific and technological missions. These include communications satellites like Starlink; space stations such as the ISS; scientific satellites like the Hubble; Earth observation satellites from companies like Planet Labs, Umbra, and HawkEye 360; GPS; miniature CubeSats for education and research; and military/defense satellites.

Not visible in the next 10 days
Identifier
52939, 2022-072E
Orbit
LEO
Country
Flag of ININ / IND
Related business
Manufacturer
ISRO SAC/Banga
Mission
Civil Technology
Bus & Motor
POEM, Unknown motor
Mass
50 kg wet, ~50 kg dry
Launch date (UTC)
2022-06-30 (3 years ago)
Launch vehicle
PSLV
Launch site
Sirharikota (SRI)
Object type
Payload
Rocket body
Debris
Shape & HBR
Box, 0.3 m
Radar Cross Section
0.195 m², Large (>1 m²)

Expand to show TLE details & history
Last TLE update: 2 days ago

TLE from 2 days ago
0 POEM
1 52939U 22072E   25244.22901199  .00010411  00000-0  43129-3 0  9990
2 52939   9.9521 100.1074 0027011 239.0602 120.6956 15.19314329175417
Epoch: 2025-09-01T05:29Z
TLE epoch observation values (Epoch: 2025-09-01T05:29:46.635Z)
Latitude
-0.00001°
Longitude
37.02544°
Altitude
514.446 km
Speed
7.605 km/s
True Right ascension
06h 40m 25s
True Declination
0° 00' 00"
Sunlit
Object was in daylight at epoch
Visualization orbit readout
Latitude
Unknown
Longitude
Unknown
Altitude
Unknown
Speed
Unknown
Apparent Right ascension
Unknown
Apparent Declination
Unknown
Sunlit
N/A
Visualization observer readout
Local Sidereal Time
16:17:02
Azimuth
Unknown
Elevation
Unknown
Doppler factor
Unknown
Orbital elements
Apogee altitude
532.646 km
Perigee altitude
495.413 km
Semi-major axis
6,892.166 km
Eccentricity
0.0027
Inclination
9.9521°
RAAN
100.1074°
Arg. of periapsis
239.0602°
True anomaly
120.9613°
Mean anomaly
120.6956°
Eccentric anomaly
120.82849°
Mean motion
3.79323 °/min
Orbital period
94.91 mins
BSTAR
0.00043129
Loading maneuver chart data...
Computing Atmospheric mass density...
Loading historical data...
Loading historical data...
Loading historical data...
Loading historical data...
Loading historical data...
Loading historical data...
Loading historical data...
Other satellites on launch #72 in the year 2022 (2022-06-30 UTC)

Documentation

Showing up to 5 results
|